Regional Weather Roundup
Issued by NWS

Home | Current Version | Previous Version | Graphics & Text | Print | Product List | Glossary On
Versions: 1 2 3 4 5 6 7 8 9 10 11 12 13 14 15 16 17 18 19 20 21 22 23 24 25 26 27 28 29 30 31 32 33 34 35 36 37 38 39 40 41 42 43 44 45 46 47 48 49 50
000
ASUS45 KBOI 302210
RWRID
WEATHER ROUNDUP FOR IDAHO
NATIONAL WEATHER SERVICE BOISE ID
400 PM MDT SAT AUG 30 2014

NOTE: "FAIR" INDICATES FEW OR NO CLOUDS BELOW 12000 FEET
WITH NO SIGNIFICANT WEATHER AND/OR OBSTRUCTIONS TO VISIBILITY

IDZ012-014-302300-
SOUTHWEST IDAHO


CITY           SKY/WX    TMP DP  RH WIND       PRES   REMARKS
BOISE          PTSUNNY   78  39  24 NW10      29.86F
CALDWELL       PTSUNNY   81  41  24 NE8       29.86F
MOUNTAIN HOME  PTSUNNY   80  40  23 NW16      29.85F
$$

IDZ016-017-302300-
SOUTHCENTRAL IDAHO


CITY           SKY/WX    TMP DP  RH WIND       PRES   REMARKS
BURLEY         MOSUNNY   74  42  31 W13G21    29.90F
JEROME         PTSUNNY   75  40  28 W13       29.91F
TWIN FALLS     PTSUNNY   74  41  30 NW12      29.91F
$$

IDZ019>023-302300-
SOUTHEAST IDAHO


CITY           SKY/WX    TMP DP  RH WIND       PRES   REMARKS
IDAHO FALLS    PTSUNNY   73  49  42 S13       29.91F
POCATELLO      MOSUNNY   75  41  29 SW15G28   29.92F
REXBURG        PTSUNNY   63  53  70 N6        29.93F
$$

IDZ006-010-011-018-031-032-302300-
CENTRAL IDAHO MOUNTAINS


CITY           SKY/WX    TMP DP  RH WIND       PRES   REMARKS
MCCALL         PTSUNNY   66  39  37 SW10G17   29.93F
HAILEY         PTSUNNY   72  37  28 S12G20    29.93F
STANLEY          N/A     65  36  34 VRB7G17   29.99S
SALMON         CLOUDY    63  55  77 SE5       29.86S
CHALLIS        MOSUNNY   76  35  22 W14       29.84F
$$

IDZ002-004-006-007-026-302300-
NORTHERN IDAHO


CITY           SKY/WX    TMP DP  RH WIND       PRES   REMARKS
LEWISTON       CLOUDY    78  45  30 VRB5      29.81F
LOWELL           N/A     82  46  28 CALM      29.81F
COEUR D`ALENE  PTSUNNY   72  43  35 SW14      29.84F
MULLAN PASS    CLOUDY    54  39  57 VRB3      29.96F
$$



USA.gov is the U.S. government's official web portal to all federal, state and local government web resources and services.